QPF
0.00 0.00 0.00 0.00 0.00 0.00 0.00 0.00 0.00 0.00 0.00 0.00 0.00 0.00 0.00 0.00 0.00 0.00 0.00 0.00 0.00 0.00 0.00 0.00 0.00 0.00 0.00 0.00 0.00 0.00 0.00 0.00 0.00 0.00 0.00 0.00 0.00 0.00 0.00 0.00 0.00 0.00
0.00 0.00 0.00 0.00 0.00 0.00 0.00 0.00 0.00 0.00 0.00 0.00 0.00 0.00 0.00 0.00 0.00 0.00 0.00 0.00 0.00 0.00 0.00 0.00 0.00 0.00 0.00 0.00 0.00 0.00 0.00 0.00 0.00 0.00 0.00 0.00 0.00 0.00 0.00 0.00 0.00 0.00
0.01 0.01 0.01 0.01 0.00 0.00 0.00 0.00 0.00 0.00 0.00 0.00 0.00 0.00 0.00 0.00 0.00 0.00 0.00 0.00 0.00 0.00 0.00 0.00 0.00 0.01 0.01 0.00 0.00 0.00 0.00 0.00 0.00 0.00 0.00 0.00 0.00 0.00 0.00 0.00 0.00 0.00
0.01 0.01 0.01 0.01 0.01 0.01 0.00 0.00 0.00 0.00 0.00 0.00 0.00 0.00 0.00 0.00 0.00 0.00 0.00 0.00 0.00 0.01 0.02 0.00 0.00 0.01 0.00 0.00 0.00 0.00 0.00 0.01 0.01 0.00 0.00 0.00 0.00 0.00 0.00 0.00 0.00 0.00
0.01 0.01 0.01 0.01 0.00 0.00 0.00 0.00 0.00 0.00 0.00 0.00 0.00 0.00 0.00 0.00 0.00 0.00 0.00 0.00 0.00 0.01 0.00 0.02 0.01 0.00 0.00 0.00 0.01 0.01 0.01 0.01 0.01 0.01 0.01 0.01 0.01 0.00 0.00 0.00 0.00 0.00
0.00 0.00 0.00 0.00 0.00 0.00 0.00 0.00 0.00 0.00 0.00 0.00 0.00 0.00 0.00 0.00 0.00 0.00 0.00 0.00 0.00 0.00 0.00 0.16 0.05 0.03 0.03 0.00 0.01 0.01 0.01 0.01 0.01 0.01 0.01 0.01 0.01 0.00 0.00 0.00 0.00 0.00
0.00 0.00 0.00 0.00 0.00 0.00 0.00 0.00 0.00 0.00 0.00 0.00 0.00 0.00 0.00 0.00 0.00 0.00 0.00 0.00 0.00 0.00 0.00 0.06 0.01 0.03 0.01 0.01 0.01 0.01 0.02 0.01 0.00 0.00 0.01 0.00 0.00 0.00 0.00 0.00 0.00 0.00
0.00 0.00 0.00 0.00 0.00 0.00 0.00 0.00 0.00 0.00 0.00 0.00 0.00 0.00 0.00 0.00 0.00 0.00 0.00 0.00 0.00 0.00 0.00 0.01 0.05 0.02 0.00 0.01 0.00 0.00 0.00 0.00 0.00 0.01 0.01 0.01 0.01 0.01 0.00 0.00 0.00 0.00
0.00 0.00 0.00 0.00 0.00 0.00 0.00 0.00 0.00 0.00 0.00 0.00 0.00 0.00 0.00 0.00 0.00 0.00 0.00 0.00 0.00 0.00 0.00 0.00 0.00 0.01 0.00 0.00 0.01 0.00 0.00 0.00 0.00 0.01 0.01 0.01 0.01 0.01 0.00 0.00 0.00 0.00
0.00 0.00 0.00 0.00 0.00 0.00 0.00 0.00 0.00 0.00 0.00 0.00 0.00 0.00 0.00 0.00 0.00 0.00 0.00 0.00 0.00 0.00 0.00 0.00 0.00 0.01 0.00 0.03 0.01 0.00 0.01 0.00 0.00 0.00 0.00 0.00 0.00 0.00 0.00 0.00 0.00 0.00
0.00 0.00 0.00 0.00 0.00 0.00 0.00 0.00 0.00 0.00 0.00 0.00 0.00 0.01 0.00 0.00 0.00 0.00 0.00 0.00 0.00 0.00 0.00 0.00 0.00 0.00 0.00 0.00 0.00 0.00 0.00 0.00 0.00 0.01 0.01 0.01 0.00 0.00 0.00 0.00 0.00 0.00
0.00 0.00 0.00 0.00 0.00 0.00 0.00 0.00 0.00 0.00 0.00 0.00 0.00 0.01 0.01 0.01 0.01 0.01 0.00 0.00 0.00 0.00 0.00 0.00 0.00 0.00 0.00 0.04 0.01 0.01 0.01 0.01 0.01 0.01 0.01 0.01 0.01 0.00 0.00 0.00 0.00 0.00
0.00 0.00 0.00 0.00 0.00 0.00 0.00 0.00 0.00 0.00 0.00 0.00 0.01 0.01 0.01 0.01 0.01 0.01 0.00 0.00 0.00 0.00 0.00 0.00 0.00 0.00 0.00 0.00 0.00 0.01 0.01 0.02 0.02 0.01 0.01 0.01 0.01 0.00 0.00 0.00 0.00 0.00
0.00 0.00 0.00 0.00 0.00 0.00 0.00 0.00 0.00 0.00 0.00 0.01 0.01 0.02 0.02 0.02 0.02 0.02 0.01 0.01 0.00 0.00 0.00 0.00 0.00 0.00 0.00 0.00 0.00 0.01 0.01 0.01 0.01 0.01 0.01 0.01 0.01 0.01 0.00 0.00 0.00 0.00
0.00 0.00 0.00 0.00 0.00 0.00 0.00 0.00 0.00 0.00 0.01 0.01 0.03 0.05 0.04 0.04 0.04 0.04 0.03 0.02 0.01 0.01 0.01 0.00 0.00 0.00 0.00 0.00 0.00 0.00 0.01 0.01 0.01 0.01 0.01 0.01 0.01 0.01 0.00 0.00 0.00 0.01
0.00 0.00 0.00 0.00 0.00 0.00 0.00 0.01 0.01 0.02 0.02 0.04 0.05 0.06 0.06 0.05 0.05 0.05 0.04 0.03 0.02 0.02 0.01 0.01 0.01 0.00 0.00 0.00 0.00 0.00 0.00 0.01 0.01 0.01 0.01 0.01 0.01 0.01 0.01 0.01 0.01 0.01
0.00 0.00 0.00 0.00 0.00 0.00 0.01 0.02 0.02 0.03 0.04 0.05 0.07 0.07 0.07 0.07 0.06 0.07 0.05 0.04 0.03 0.03 0.03 0.02 0.01 0.01 0.00 0.00 0.00 0.00 0.00 0.01 0.01 0.01 0.01 0.01 0.01 0.01 0.01 0.01 0.01 0.01
0.00 0.00 0.00 0.00 0.00 0.01 0.01 0.02 0.02 0.03 0.04 0.06 0.07 0.09 0.09 0.09 0.10 0.08 0.06 0.05 0.05 0.05 0.04 0.03 0.02 0.01 0.01 0.00 0.00 0.00 0.01 0.01 0.01 0.01 0.01 0.01 0.01 0.01 0.01 0.01 0.01 0.01
0.00 0.00 0.00 0.00 0.00 0.01 0.01 0.02 0.02 0.03 0.04 0.06 0.08 0.08 0.10 0.12 0.10 0.08 0.07 0.06 0.07 0.06 0.05 0.04 0.03 0.02 0.01 0.01 0.01 0.01 0.01 0.01 0.00 0.01 0.01 0.01 0.01 0.01 0.01 0.01 0.01 0.01
0.00 0.00 0.00 0.00 0.00 0.00 0.01 0.01 0.02 0.02 0.03 0.10 0.07 0.07 0.08 0.08 0.08 0.08 0.08 0.08 0.08 0.07 0.06 0.05 0.04 0.03 0.02 0.02 0.02 0.01 0.02 0.03 0.01 0.00 0.01 0.01 0.01 0.01 0.01 0.01 0.01 0.01
0.00 0.00 0.00 0.00 0.00 0.01 0.00 0.01 0.01 0.02 0.02 0.03 0.05 0.07 0.08 0.07 0.07 0.07 0.07 0.08 0.08 0.08 0.07 0.05 0.03 0.03 0.03 0.02 0.02 0.02 0.02 0.07 0.02 0.00 0.01 0.01 0.01 0.01 0.01 0.01 0.01 0.01
0.00 0.00 0.00 0.00 0.01 0.01 0.01 0.00 0.00 0.01 0.02 0.03 0.05 0.06 0.06 0.07 0.07 0.06 0.06 0.07 0.08 0.09 0.08 0.05 0.03 0.03 0.03 0.03 0.02 0.02 0.02 0.02 0.04 0.01 0.01 0.01 0.01 0.01 0.01 0.01 0.01 0.01
0.00 0.00 0.00 0.00 0.00 0.00 0.00 0.00 0.00 0.00 0.01 0.02 0.05 0.05 0.05 0.06 0.06 0.07 0.08 0.09 0.09 0.09 0.07 0.05 0.03 0.03 0.03 0.02 0.02 0.02 0.03 0.02 0.05 0.03 0.01 0.01 0.01 0.02 0.02 0.01 0.01 0.01
0.00 0.00 0.00 0.00 0.00 0.00 0.00 0.00 0.00 0.00 0.00 0.01 0.02 0.04 0.05 0.05 0.06 0.07 0.08 0.09 0.09 0.08 0.05 0.05 0.04 0.03 0.04 0.02 0.02 0.02 0.02 0.02 0.03 0.03 0.01 0.01 0.02 0.03 0.03 0.02 0.01 0.01
0.00 0.00 0.00 0.00 0.00 0.00 0.00 0.00 0.00 0.00 0.00 0.00 0.01 0.02 0.04 0.05 0.08 0.08 0.08 0.09 0.08 0.07 0.06 0.05 0.04 0.04 0.03 0.02 0.02 0.02 0.02 0.02 0.02 0.03 0.02 0.02 0.03 0.04 0.03 0.02 0.01 0.01
0.01 0.01 0.00 0.00 0.00 0.00 0.00 0.00 0.00 0.00 0.00 0.00 0.01 0.01 0.02 0.03 0.04 0.04 0.05 0.06 0.06 0.07 0.07 0.06 0.05 0.04 0.04 0.02 0.02 0.02 0.03 0.03 0.02 0.02 0.02 0.02 0.03 0.04 0.04 0.02 0.01 0.01
MSLP
1011.52 1011.08 1010.56 1010.12 1009.84 1009.60 1009.28 1009.04 1008.76 1008.56 1008.28 1008.20 1008.12 1007.92 1007.88 1007.60 1007.76 1008.00 1008.12 1008.32 1008.36 1008.36 1008.44 1008.60 1008.80 1009.04 1009.28 1009.60 1009.84 1010.12 1010.44 1010.72 1011.04 1011.44 1011.92 1012.32 1012.68 1013.04 1013.48 1013.92 1014.28 1014.56
1011.04 1010.72 1010.28 1009.80 1009.36 1009.04 1008.84 1008.68 1008.44 1008.32 1008.00 1007.80 1007.68 1007.52 1007.40 1007.36 1007.24 1007.36 1007.64 1007.84 1007.88 1007.84 1007.84 1008.00 1008.32 1008.56 1008.88 1009.20 1009.48 1009.84 1010.20 1010.52 1010.84 1011.20 1011.72 1012.08 1012.32 1012.72 1013.00 1013.40 1013.84 1014.24
1010.52 1010.20 1009.92 1009.60 1009.16 1008.72 1008.44 1008.12 1008.04 1007.84 1007.72 1007.44 1007.36 1007.20 1007.04 1006.96 1006.88 1006.84 1007.04 1007.32 1007.44 1007.40 1007.44 1007.48 1007.68 1008.08 1008.48 1008.76 1009.12 1009.40 1009.68 1010.08 1010.48 1010.92 1011.36 1011.64 1011.96 1012.36 1012.64 1013.08 1013.56 1013.92
1010.00 1009.76 1009.44 1009.08 1008.76 1008.44 1008.08 1007.84 1007.48 1007.32 1007.12 1007.12 1007.04 1006.88 1006.72 1006.56 1006.44 1006.40 1006.44 1006.72 1006.96 1007.00 1007.04 1007.08 1007.24 1007.68 1008.04 1008.36 1008.72 1009.04 1009.24 1009.56 1009.88 1010.44 1010.96 1011.36 1011.72 1012.08 1012.48 1012.88 1013.28 1013.72
1009.56 1009.20 1008.88 1008.56 1008.24 1007.96 1007.80 1007.56 1007.20 1006.92 1006.76 1006.60 1006.60 1006.56 1006.52 1006.32 1006.12 1006.04 1006.04 1006.12 1006.40 1006.64 1006.72 1006.80 1006.96 1007.08 1007.44 1007.92 1008.36 1008.84 1009.12 1009.48 1009.84 1010.24 1010.60 1011.04 1011.44 1011.68 1012.08 1012.52 1012.88 1013.28
1009.08 1008.76 1008.40 1008.16 1007.92 1007.72 1007.52 1007.32 1007.00 1006.68 1006.44 1006.32 1006.16 1006.12 1006.12 1005.96 1005.80 1005.64 1005.56 1005.64 1005.76 1006.08 1006.32 1006.48 1006.60 1006.72 1007.12 1007.56 1008.00 1008.36 1008.68 1009.12 1009.44 1009.88 1010.28 1010.60 1011.00 1011.20 1011.64 1012.12 1012.52 1012.88
1008.64 1008.28 1008.00 1007.76 1007.56 1007.36 1007.20 1006.92 1006.68 1006.40 1006.12 1005.88 1005.76 1005.76 1005.64 1005.60 1005.48 1005.32 1005.20 1005.12 1005.20 1005.40 1005.72 1006.08 1006.28 1006.56 1006.80 1007.16 1007.56 1007.88 1008.24 1008.48 1008.84 1009.28 1009.76 1010.16 1010.52 1010.92 1011.36 1011.84 1012.16 1012.48
1008.16 1007.92 1007.72 1007.48 1007.24 1006.96 1006.72 1006.44 1006.20 1005.92 1005.64 1005.40 1005.36 1005.12 1005.20 1005.12 1005.04 1005.00 1004.96 1004.84 1004.76 1004.84 1005.12 1005.52 1005.88 1006.16 1006.40 1006.72 1007.04 1007.44 1007.84 1008.20 1008.52 1008.88 1009.28 1009.68 1010.12 1010.52 1011.00 1011.44 1011.88 1012.28
1007.80 1007.56 1007.36 1007.12 1006.88 1006.56 1006.24 1005.92 1005.64 1005.36 1005.12 1004.96 1004.72 1004.64 1004.60 1004.68 1004.56 1004.48 1004.44 1004.48 1004.40 1004.32 1004.52 1004.92 1005.36 1005.80 1006.04 1006.32 1006.60 1006.92 1007.28 1007.72 1007.92 1008.24 1008.60 1009.08 1009.56 1009.96 1010.44 1010.96 1011.52 1011.92
1007.48 1007.16 1006.88 1006.60 1006.40 1006.08 1005.80 1005.48 1005.16 1004.88 1004.60 1004.44 1004.20 1004.12 1004.12 1004.04 1004.12 1004.04 1004.00 1004.00 1004.00 1003.96 1004.00 1004.28 1004.84 1005.28 1005.60 1005.84 1006.08 1006.44 1006.80 1007.04 1007.36 1007.76 1008.12 1008.44 1008.84 1009.32 1009.88 1010.52 1011.04 1011.56
1007.00 1006.76 1006.48 1006.16 1005.88 1005.60 1005.28 1005.00 1004.72 1004.36 1004.08 1003.84 1003.64 1003.52 1003.44 1003.56 1003.60 1003.68 1003.68 1003.56 1003.52 1003.52 1003.56 1003.76 1004.12 1004.60 1005.04 1005.44 1005.68 1005.92 1006.20 1006.48 1006.80 1007.20 1007.60 1008.00 1008.36 1008.76 1009.16 1009.76 1010.40 1010.88
1006.40 1006.20 1005.96 1005.72 1005.48 1005.20 1004.88 1004.56 1004.24 1003.92 1003.60 1003.32 1003.20 1003.04 1002.88 1002.96 1003.08 1003.16 1003.16 1003.04 1002.92 1002.92 1003.00 1003.08 1003.44 1003.92 1004.44 1004.88 1005.24 1005.56 1005.84 1006.04 1006.32 1006.72 1007.12 1007.56 1007.96 1008.28 1008.60 1009.12 1009.76 1010.28
1006.24 1005.96 1005.72 1005.48 1005.16 1004.84 1004.52 1004.20 1003.84 1003.48 1003.16 1002.88 1002.60 1002.60 1002.52 1002.48 1002.48 1002.56 1002.52 1002.52 1002.40 1002.44 1002.52 1002.60 1002.84 1003.32 1003.88 1004.40 1004.88 1005.24 1005.48 1005.72 1006.00 1006.44 1006.84 1007.24 1007.60 1007.88 1008.12 1008.48 1009.04 1009.64
1006.04 1005.76 1005.48 1005.12 1004.80 1004.48 1004.16 1003.76 1003.36 1003.00 1002.72 1002.44 1002.28 1002.16 1002.08 1002.00 1002.00 1002.00 1001.92 1002.04 1001.96 1002.04 1002.04 1002.20 1002.40 1002.72 1003.24 1003.80 1004.40 1004.84 1005.20 1005.48 1005.76 1006.12 1006.52 1006.92 1007.24 1007.56 1007.76 1008.04 1008.44 1008.96
1005.60 1005.32 1005.00 1004.68 1004.36 1004.04 1003.68 1003.28 1002.88 1002.52 1002.24 1002.00 1001.84 1001.68 1001.60 1001.52 1001.48 1001.56 1001.60 1001.68 1001.68 1001.76 1001.88 1001.96 1002.12 1002.28 1002.68 1003.24 1003.92 1004.52 1004.88 1005.16 1005.44 1005.80 1006.16 1006.56 1006.96 1007.28 1007.52 1007.76 1008.08 1008.48
1005.08 1004.80 1004.48 1004.20 1003.92 1003.56 1003.16 1002.80 1002.44 1002.08 1001.80 1001.52 1001.28 1001.16 1001.16 1001.08 1001.12 1001.12 1001.20 1001.20 1001.28 1001.44 1001.68 1001.80 1001.84 1001.96 1002.24 1002.68 1003.20 1003.80 1004.36 1004.72 1005.12 1005.44 1005.76 1006.12 1006.52 1006.92 1007.24 1007.44 1007.64 1007.96
1004.56 1004.24 1003.96 1003.68 1003.36 1003.08 1002.72 1002.32 1001.96 1001.64 1001.36 1001.08 1000.84 1000.68 1000.72 1000.72 1000.76 1000.76 1000.68 1000.68 1000.84 1001.08 1001.40 1001.64 1001.68 1001.76 1001.92 1002.20 1002.56 1003.12 1003.76 1004.28 1004.64 1005.08 1005.44 1005.80 1006.16 1006.48 1006.76 1007.04 1007.32 1007.60
1004.00 1003.64 1003.36 1003.04 1002.80 1002.44 1002.08 1001.76 1001.48 1001.24 1001.00 1000.68 1000.44 1000.32 1000.24 1000.32 1000.40 1000.28 1000.24 1000.28 1000.44 1000.68 1000.96 1001.20 1001.44 1001.52 1001.64 1001.80 1002.08 1002.48 1003.08 1003.72 1004.16 1004.60 1005.08 1005.40 1005.76 1006.08 1006.36 1006.64 1006.92 1007.28
1003.44 1003.12 1002.80 1002.44 1002.16 1001.88 1001.56 1001.28 1001.08 1000.84 1000.52 1000.28 1000.04 999.84 999.88 999.92 999.84 999.84 999.84 999.88 1000.04 1000.20 1000.40 1000.68 1001.00 1001.20 1001.36 1001.52 1001.72 1001.96 1002.32 1003.08 1003.68 1004.16 1004.60 1005.00 1005.36 1005.68 1005.96 1006.28 1006.56 1006.92
1002.88 1002.60 1002.28 1001.88 1001.60 1001.32 1001.12 1000.92 1000.72 1000.44 1000.08 999.80 999.60 999.52 999.56 999.44 999.40 999.44 999.40 999.52 999.60 999.72 999.92 1000.16 1000.44 1000.80 1001.00 1001.20 1001.36 1001.52 1001.72 1002.36 1003.16 1003.64 1004.12 1004.56 1004.96 1005.32 1005.52 1005.72 1005.96 1006.44
1002.40 1002.12 1001.80 1001.44 1001.16 1000.88 1000.64 1000.48 1000.32 1000.00 999.64 999.28 999.04 998.96 999.00 999.08 999.00 999.04 998.96 999.04 999.20 999.40 999.56 999.72 1000.00 1000.32 1000.64 1000.80 1000.96 1001.04 1001.24 1001.60 1002.64 1003.16 1003.72 1004.20 1004.68 1005.00 1005.16 1005.24 1005.48 1005.96
1001.92 1001.68 1001.32 1001.04 1000.76 1000.48 1000.28 1000.04 999.80 999.56 999.24 998.88 998.60 998.56 998.56 998.60 998.60 998.60 998.60 998.64 998.80 999.04 999.24 999.44 999.68 999.92 1000.12 1000.36 1000.48 1000.60 1000.84 1001.16 1002.04 1002.76 1003.32 1003.84 1004.44 1004.80 1004.92 1004.96 1005.20 1005.68
1001.44 1001.28 1000.96 1000.60 1000.36 1000.12 999.88 999.60 999.32 999.04 998.80 998.52 998.36 998.32 998.20 998.08 998.08 998.08 998.16 998.32 998.52 998.76 998.96 999.16 999.40 999.48 999.64 999.80 1000.00 1000.20 1000.52 1000.88 1001.64 1002.40 1002.96 1003.52 1004.08 1004.44 1004.64 1004.80 1005.08 1005.60
1000.96 1000.84 1000.60 1000.24 1000.00 999.76 999.44 999.12 998.88 998.60 998.36 998.16 998.08 997.92 997.76 997.60 997.56 997.72 997.88 998.00 998.20 998.44 998.56 998.76 998.96 999.08 999.16 999.36 999.56 999.84 1000.12 1000.60 1001.32 1002.04 1002.56 1003.16 1003.72 1004.12 1004.36 1004.64 1004.96 1005.40
1000.56 1000.40 1000.20 999.92 999.64 999.28 999.04 998.76 998.52 998.28 997.92 997.64 997.52 997.44 997.36 997.24 997.28 997.44 997.60 997.72 997.80 997.92 998.12 998.36 998.60 998.80 998.88 999.04 999.20 999.48 999.76 1000.28 1000.80 1001.64 1002.24 1002.84 1003.36 1003.88 1004.20 1004.52 1004.92 1005.20
1000.16 1000.04 999.76 999.56 999.24 998.84 998.56 998.36 998.16 997.88 997.56 997.24 996.92 996.88 996.96 997.00 997.04 997.12 997.24 997.36 997.48 997.64 997.80 997.92 998.20 998.48 998.64 998.72 998.92 999.12 999.40 999.92 1000.40 1001.04 1001.80 1002.44 1003.04 1003.52 1004.04 1004.40 1004.76 1005.04
Thickness
5342 5346 5350 5353 5356 5357 5360 5362 5364 5366 5369 5369 5370 5371 5372 5372 5372 5369 5367 5365 5364 5364 5364 5363 5361 5360 5358 5355 5353 5352 5350 5348 5345 5342 5339 5336 5334 5331 5328 5325 5322 5319
5336 5338 5340 5344 5348 5350 5352 5353 5355 5358 5360 5362 5363 5365 5366 5367 5367 5366 5364 5361 5360 5360 5361 5359 5358 5356 5353 5351 5348 5346 5345 5342 5340 5337 5334 5331 5329 5326 5324 5321 5318 5316
5330 5332 5333 5336 5340 5342 5345 5346 5348 5349 5351 5354 5355 5357 5360 5361 5362 5362 5361 5358 5356 5356 5357 5356 5356 5352 5348 5346 5344 5342 5340 5338 5336 5331 5329 5327 5324 5321 5319 5316 5313 5311
5325 5326 5327 5330 5332 5335 5337 5339 5341 5342 5343 5345 5346 5348 5351 5353 5355 5356 5356 5354 5352 5352 5352 5351 5351 5348 5344 5342 5339 5337 5336 5333 5331 5327 5324 5322 5320 5317 5314 5311 5308 5306
5319 5320 5321 5323 5325 5327 5328 5330 5333 5334 5335 5336 5337 5339 5342 5345 5348 5349 5350 5349 5347 5346 5346 5345 5346 5344 5341 5338 5335 5332 5331 5328 5325 5323 5320 5317 5314 5313 5309 5307 5304 5301
5313 5314 5315 5316 5316 5317 5319 5321 5323 5325 5327 5328 5329 5331 5333 5336 5339 5342 5343 5343 5342 5341 5340 5339 5339 5338 5336 5333 5330 5329 5326 5324 5321 5318 5316 5314 5311 5309 5306 5303 5300 5297
5305 5306 5307 5307 5308 5308 5310 5313 5315 5317 5318 5320 5322 5324 5324 5326 5330 5333 5335 5336 5337 5336 5334 5333 5332 5331 5330 5328 5326 5325 5323 5320 5318 5315 5313 5310 5307 5305 5301 5298 5296 5293
5295 5296 5296 5296 5297 5299 5301 5305 5308 5310 5312 5314 5315 5317 5317 5318 5322 5324 5326 5328 5330 5331 5329 5327 5327 5325 5324 5324 5322 5321 5319 5316 5314 5313 5310 5307 5303 5301 5297 5294 5291 5288
5283 5284 5284 5283 5285 5287 5290 5295 5298 5302 5305 5306 5309 5311 5310 5312 5314 5316 5318 5320 5322 5324 5323 5321 5320 5318 5318 5319 5318 5316 5314 5312 5310 5310 5308 5304 5301 5298 5294 5290 5287 5284
5273 5273 5272 5272 5273 5275 5278 5282 5286 5290 5294 5297 5300 5303 5304 5305 5307 5308 5311 5312 5314 5316 5317 5316 5314 5313 5312 5312 5313 5312 5310 5308 5307 5306 5304 5302 5300 5296 5292 5288 5284 5281
5267 5266 5265 5265 5265 5265 5267 5269 5272 5276 5281 5285 5289 5293 5296 5298 5299 5302 5303 5305 5308 5309 5310 5311 5310 5308 5307 5306 5307 5306 5306 5305 5304 5302 5300 5298 5296 5293 5290 5287 5282 5278
5262 5260 5259 5258 5258 5257 5258 5258 5260 5263 5267 5271 5274 5278 5284 5288 5290 5293 5297 5299 5303 5303 5304 5306 5305 5303 5302 5301 5300 5300 5299 5299 5299 5298 5296 5294 5292 5290 5288 5285 5281 5276
5254 5253 5251 5250 5249 5249 5250 5250 5250 5252 5255 5258 5261 5264 5269 5275 5278 5283 5288 5292 5295 5297 5299 5301 5300 5299 5298 5296 5295 5293 5292 5293 5293 5292 5291 5289 5288 5286 5285 5283 5280 5275
5245 5244 5242 5241 5241 5241 5241 5243 5243 5244 5246 5247 5250 5252 5256 5260 5265 5270 5276 5282 5286 5289 5292 5294 5295 5295 5294 5292 5289 5286 5286 5286 5286 5286 5285 5284 5283 5281 5280 5279 5277 5273
5240 5238 5237 5236 5235 5235 5235 5236 5236 5238 5239 5240 5242 5244 5246 5249 5253 5257 5262 5270 5275 5279 5282 5284 5288 5290 5289 5287 5284 5281 5280 5280 5280 5281 5281 5279 5278 5276 5275 5275 5273 5270
5237 5235 5234 5232 5230 5230 5229 5230 5232 5232 5234 5236 5236 5238 5239 5241 5244 5247 5252 5260 5266 5270 5272 5274 5279 5283 5283 5282 5280 5277 5276 5275 5276 5277 5276 5275 5273 5272 5271 5270 5269 5267
5235 5232 5231 5229 5227 5226 5226 5226 5228 5229 5229 5231 5232 5234 5234 5234 5236 5240 5246 5254 5259 5262 5264 5265 5270 5274 5276 5276 5275 5274 5273 5271 5272 5272 5271 5270 5269 5268 5267 5266 5265 5264
5232 5230 5227 5226 5225 5224 5224 5225 5225 5226 5226 5227 5230 5231 5231 5231 5232 5236 5243 5249 5253 5256 5258 5260 5263 5266 5268 5269 5270 5271 5270 5269 5269 5268 5266 5265 5264 5263 5263 5262 5261 5259
5229 5227 5225 5224 5223 5222 5223 5223 5223 5223 5225 5226 5229 5229 5230 5231 5232 5235 5241 5245 5249 5252 5254 5255 5257 5258 5259 5262 5264 5267 5269 5267 5265 5264 5263 5261 5260 5259 5258 5258 5257 5254
5226 5224 5223 5222 5222 5221 5221 5221 5221 5222 5224 5226 5228 5229 5229 5230 5232 5235 5240 5243 5246 5248 5250 5252 5253 5252 5254 5257 5260 5263 5266 5265 5262 5261 5259 5258 5256 5255 5255 5255 5253 5250
5223 5221 5221 5220 5220 5220 5219 5220 5220 5221 5223 5225 5227 5229 5229 5230 5232 5235 5239 5241 5243 5244 5247 5249 5251 5250 5250 5253 5256 5260 5263 5264 5261 5258 5255 5254 5251 5250 5251 5251 5250 5246
5220 5219 5218 5218 5218 5218 5218 5219 5219 5220 5222 5224 5226 5227 5228 5229 5231 5234 5236 5239 5241 5242 5245 5246 5247 5247 5248 5250 5254 5258 5260 5262 5260 5256 5252 5249 5246 5245 5246 5246 5246 5242
5218 5216 5215 5216 5216 5216 5217 5218 5219 5220 5221 5222 5224 5225 5227 5229 5231 5233 5235 5237 5239 5240 5242 5242 5243 5244 5248 5251 5254 5257 5258 5259 5257 5253 5248 5245 5243 5241 5241 5241 5241 5237
5217 5214 5213 5214 5215 5215 5216 5217 5218 5219 5220 5221 5223 5224 5226 5229 5231 5233 5235 5236 5237 5239 5239 5240 5241 5243 5247 5252 5254 5255 5256 5256 5254 5250 5245 5242 5239 5237 5237 5236 5236 5233
5215 5213 5211 5212 5213 5214 5215 5216 5217 5218 5219 5220 5223 5224 5226 5228 5230 5232 5234 5235 5236 5237 5238 5239 5240 5243 5247 5251 5252 5254 5255 5254 5252 5248 5242 5238 5235 5233 5233 5232 5230 5230
5213 5211 5210 5210 5212 5213 5215 5216 5215 5217 5219 5220 5223 5225 5226 5227 5229 5231 5233 5234 5235 5237 5238 5239 5241 5243 5247 5250 5251 5253 5253 5252 5250 5246 5240 5235 5232 5231 5230 5227 5226 5225